Location: Deurze
(52.9838°N, 6.6090°E)
Time: 17:55:34
(UTC+00:00)

Cosmos 1607 - Pass Details

Date: 11 March 2026
Orbit: 919 x 983 km, 65.0° (Epoch: 22 April)

Event Time Altitude Azimuth Distance (km) Brightness Sun altitude
Rises 18:31:15 0° 316° (NW) 3,629 7.9 -10.0°
Reaches altitude 10° 18:33:47 10° 316° (NW) 2,691 7.2 -10.3°
Maximum altitude 18:40:06 88° 227° (SW) 973 4.0 -11.3°
Drops below altitude 10° 18:46:30 10° 140° (SE) 2,718 5.9 -12.2°
Enters shadow 18:47:07 - 140° (SE) 2,944 6.1 -12.3°
